Weather History for Belize, Belize

Change the Weather History Date:

Wednesday, April 24, 2013

  Actual Average Record
Temperature  
Mean Temperature 82 °F -  
Max Temperature 89 °F 89 °F 93 °F (1997)
Min Temperature 76 °F 75 °F 64 °F (2012)
Cooling Degree Days 18    
Growing Degree Days 32 (Base 50)    
Moisture  
Dew Point 74 °F    
Average Humidity 72    
Maximum Humidity 85    
Minimum Humidity 59    
Precipitation  
Precipitation 0.00 in 0.12 in - ()
Sea Level Pressure  
Sea Level Pressure 29.94 in    
Wind  
Wind Speed 5 mph ()    
Max Wind Speed 13 mph    
Max Gust Speed -    
Visibility 9.0 miles    
Events      
Averages and records for this station are not official NWS values.
T = Trace of Precipitation, MM = Missing Value Source: Averaged Metar Reports

Daily Weather History Graph

Daily Weather History Graph

Search for Another Location

Airport:

Trip Planner

Search our weather history database for the weather conditions in past years. The results will help you decide how hot, cold, wet, or windy it might be!

Date:

Astronomy

Apr. 24, 2013 Rise Set
Actual Time 5:31 AM CST 6:11 PM CST
Civil Twilight 5:08 AM CST 6:34 PM CST
Nautical Twilight 4:42 AM CST 7:00 PM CST
Astronomical Twilight 4:15 AM CST 7:27 PM CST
Moon 5:19 PM CST (4/24) 4:24 AM CST (4/24)
Length of Visible Light 13h 25m
Length of Day
12h 40m
Waxing Gibbous, 98% of the Moon is Illuminated
Apr 24
Waxing Gibbous
Apr 25
Full
May 2
Last Quarter
May 9
New
May 17
First Quarter

Hourly Weather History & Observations

Time (CST) Temp. Heat Index Dew Point Humidity Pressure Visibility Wind Dir Wind Speed Gust Speed Precip Events Conditions
12:00 AM 78 °F - 74 °F 85% 29.91 in 12 mi Calm Calm - -   Partly Cloudy
3:00 AM 78 °F - 73 °F 81% 29.90 in 12 mi East 4.6 mph - -   Scattered Clouds
5:00 AM 78.8 °F - 73.4 °F 83% 29.92 in 6.2 mi Calm Calm - N/A   Partly Cloudy
6:00 AM 78 °F - 74 °F 84% 29.96 in 12 mi Calm Calm - -   Mostly Cloudy
6:00 AM 78.8 °F - 73.4 °F 83% 29.95 in 6.2 mi Calm Calm - N/A   Mostly Cloudy
7:00 AM 82.4 °F 89.5 °F 75.2 °F 79% 29.95 in 6.2 mi East 9.2 mph - N/A   Mostly Cloudy
8:00 AM 84.2 °F 90.9 °F 73.4 °F 70% 29.98 in 6.2 mi ESE 11.5 mph - N/A   Scattered Clouds
9:00 AM 85 °F - 74 °F 62% 30.00 in 12 mi East 9.2 mph - -   Partly Cloudy
12:00 PM 88 °F - 76 °F 59% 29.96 in 14 mi East 11.5 mph - -   Partly Cloudy
12:00 PM 87.8 °F 97.6 °F 75.2 °F 66% 29.95 in 6.2 mi East 11.5 mph - N/A   Scattered Clouds
1:00 PM 87.8 °F 95.6 °F 73.4 °F 62% 29.93 in 6.2 mi East 12.7 mph - N/A   Scattered Clouds
2:00 PM 87.8 °F 97.6 °F 75.2 °F 66% 29.91 in 6.2 mi East 12.7 mph - N/A   Scattered Clouds
3:00 PM 87 °F - 75 °F 59% 29.91 in 16 mi East 11.5 mph - -   Partly Cloudy
3:00 PM 86.0 °F 95.1 °F 75.2 °F 70% 29.90 in 6.2 mi East 11.5 mph - N/A   Scattered Clouds
4:00 PM 86.0 °F 95.1 °F 75.2 °F 70% 29.90 in 6.2 mi East 10.4 mph - N/A   Scattered Clouds
5:00 PM 86.0 °F 95.1 °F 75.2 °F 70% 29.91 in 6.2 mi East 9.2 mph - N/A   Scattered Clouds
6:00 PM 83 °F - 74 °F 67% 29.93 in 12 mi East 6.9 mph - -   Partly Cloudy
6:00 PM 82.4 °F 88.2 °F 73.4 °F 74% 29.92 in 6.2 mi East 6.9 mph - N/A   Scattered Clouds
9:00 PM 82 °F - 74 °F 70% 29.99 in 12 mi East 8.1 mph - -   Partly Cloudy